Location: Kumla
(59.1265°N, 15.1401°E)
Time: 19:36:34
(UTC+01:00)

Transit 2A - Pass Details

Date: 10 December 2023
Orbit: 600 x 953 km, 66.7° (Epoch: 23 February)

Event Time Altitude Azimuth Distance (km) Brightness Sun altitude
Rises 14:47:50 0° 207° (SSW) 3,111 11.3 0.4°
Reaches altitude 10° 14:50:19 10° 202° (SSW) 2,141 9.9 0.2°
Maximum altitude 14:54:55 48° 129° (SE) 854 6.3 -0.2°
Drops below altitude 10° 14:59:14 10° 55° (NE) 2,000 7.6 -0.6°
Enters shadow 15:01:15 - 50° (NE) 2,791 8.2 -0.8°
Sets 15:01:29 0° 50° (NE) 2,885 - -0.8°
